#timestamp,LO_Frequency,Hit,StdDev 
1593295215.4,286046993.4,P
1593295235.2,286046994.6,N
1593295255.1,286046994.5,N
1593295256.0,286046994.5,N
1593295275.8,286046994.7,N
1593295295.7,286046994.0,N
1593295315.5,286046996.0,N
1593295335.3,286046993.9,Y
1593295355.2,286046998.3,P
1593295375.0,286046998.8,N
1593295375.9,286046998.8,N
1593295395.8,286046998.1,N
1593295415.6,286046999.2,N
1593295435.4,286046996.5,N
1593295455.3,286046998.9,N
1593295475.1,286046996.5,N
1593295495.8,286046997.2,N
1593295515.7,286046999.0,N
1593295535.5,286046998.4,N
1593295555.4,286046999.5,N
1593295575.2,286046997.9,N
1593295595.0,286046997.9,N
1593295595.9,286046997.9,N
1593295615.8,286046997.8,N
1593295635.6,286046997.3,N
1593295655.5,286046998.9,N
1593295675.3,286046998.7,N
1593295695.1,286047001.1,N
1593295715.9,286047000.7,N
1593295735.7,286046999.0,N
1593295755.5,286047000.6,N
1593295775.4,286047011.9,Y
1593295795.2,286046998.4,P
1593295815.1,286046999.6,P
1593295816.0,286046999.6,N
1593295835.8,286046999.1,N
1593295855.6,286046996.6,Y
1593295875.5,286046998.4,P
1593295895.3,286047001.0,P
1593295915.1,286047001.2,N
1593295935.9,286047000.6,N
1593295955.7,286047000.4,N
1593295975.6,286047002.5,N
1593295995.4,286047004.3,Y
1593296015.2,286047001.6,P
1593296035.1,286047000.1,N
1593296036.0,286047000.1,N
1593296055.8,286047000.2,N
1593296075.6,286047000.2,N
1593296095.5,286047000.4,N
1593296115.3,286047000.1,N
1593296135.2,286047002.4,Y
1593296155.9,286047000.2,P
1593296175.7,286047002.2,P
1593296195.6,286046999.7,N
1593296215.4,286046998.1,N
1593296235.2,286047000.8,N
1593296255.1,286047000.0,N
1593296256.0,286047000.0,N
1593296275.8,286047001.6,N
1593296295.7,286047002.4,N
1593296315.5,286047002.6,N
1593296335.3,286047002.3,N
1593296355.2,286047001.5,N
1593296375.0,286047000.6,N
1593296375.9,286047000.6,N
1593296395.7,286047001.1,N
1593296415.6,286046999.9,N
1593296435.4,286047001.3,N
1593296455.3,286047002.0,N
1593296475.1,286046999.9,N
1593296476.0,286046999.9,N
1593296495.8,286047000.8,N
1593296515.7,286046999.8,N
1593296535.5,286047001.3,N
1593296555.3,286047003.8,Y
1593296575.2,286047003.7,P
1593296595.0,286047003.4,N
1593296595.9,286047003.4,N
1593296615.8,286047005.5,Y
1593296635.6,286047002.4,P
1593296655.4,286047000.6,N
1593296675.3,286047000.4,N
1593296695.1,286046999.8,N
1593296715.8,286047000.8,N
1593296735.7,286046998.5,N
1593296755.5,286046999.8,N
1593296775.4,286047001.8,N
1593296795.2,286047002.3,N
1593296815.0,286047000.2,N
1593296815.9,286047000.2,N
1593296835.8,286047000.3,N
1593296855.6,286046998.6,N
1593296875.4,286046998.6,N
1593296895.3,286046999.2,N
1593296915.1,286047000.8,N
1593296935.9,286047000.7,N
1593296955.7,286047001.1,N
1593296975.5,286047000.9,N
1593296995.4,286047002.8,N
1593297015.2,286047002.3,N
1593297035.0,286047002.5,N
1593297035.9,286047002.5,N
1593297055.8,286047002.4,N
1593297075.6,286047000.7,N
1593297095.4,286047001.2,N
1593297115.3,286047001.1,N
1593297135.1,286047001.2,N
1593297155.9,286047000.0,N
1593297175.7,286047000.8,N
1593297195.5,286047000.5,N
1593297215.4,286046999.7,N
1593297235.2,286047002.6,N
1593297255.0,286046999.9,N
1593297255.9,286046999.9,N
1593297275.8,286047002.5,N
1593297295.6,286047002.4,N
1593297315.5,286047002.7,N
1593297335.3,286047002.6,N
1593297355.1,286047002.1,N
1593297375.9,286047002.5,N
1593297395.7,286047002.8,N
1593297415.5,286047002.0,N
1593297435.4,286046999.7,N
1593297455.2,286047001.5,N
1593297475.1,286047001.9,N
1593297476.0,286047001.9,N
1593297495.8,286047001.7,N
1593297515.6,286047003.7,Y
1593297535.5,286047002.7,P
1593297555.3,286047002.4,P
1593297575.1,286047002.7,P
1593297595.9,286046999.8,N
1593297615.7,286047002.6,N
1593297635.6,286047000.0,N
1593297655.4,286047002.8,N
1593297675.2,286047003.4,N
1593297695.1,286047001.7,N
1593297696.0,286047001.7,N
1593297715.8,286047001.5,N
1593297735.6,286046999.8,N
1593297755.5,286047000.3,N
1593297775.3,286047002.3,N
1593297795.2,286047002.0,N
1593297815.9,286047002.4,N
1593297835.7,286047002.5,N
1593297855.6,286046999.8,N
1593297875.4,286047002.4,N
1593297895.2,286046999.7,N
1593297915.1,286046999.8,N
1593297916.0,286046999.8,N
1593297935.8,286047000.5,N
1593297955.7,286047002.0,N
1593297975.5,286047002.8,N
1593297995.3,286047002.8,N
1593298015.2,286047000.3,N
1593298035.9,286047002.3,N
1593298055.7,286047000.6,N
1593298075.6,286047002.8,N
1593298095.4,286047001.7,N
1593298115.2,286047002.1,N
1593298135.1,286047002.6,N
1593298136.0,286047002.6,N
1593298155.8,286046999.8,N
1593298175.7,286047001.4,N
1593298195.5,286047001.6,N
1593298245.4,286047001.4,E
1593298255.3,286047004.2,N
1593298275.1,286047002.2,P
1593298295.9,286047001.7,N
1593298315.7,286047004.4,Y
1593298335.5,286047000.8,P
1593298355.4,286047000.7,N
1593298375.2,286047001.0,N
1593298395.0,286047001.0,N
1593298395.9,286047001.0,N
1593298415.8,286047000.5,N
1593298435.6,286047000.2,N
1593298455.5,286047002.8,Y
1593298475.3,286047011.9,P
1593298495.1,286047000.8,N
1593298515.9,286047000.6,N
1593298535.7,286046998.9,N
1593298555.5,286047000.8,N
1593298575.4,286046998.2,N
1593298595.2,286047000.1,N
1593298615.1,286047001.9,N
1593298616.0,286047001.9,N
1593298635.8,286047001.7,N
1593298655.6,286047003.4,N
1593298675.5,286047005.9,N
1593298695.3,286047004.9,N
1593298715.1,286047007.0,N
1593298735.9,286047005.8,N
1593298755.7,286047003.3,N
1593298775.6,286047003.9,N
1593298795.4,286047003.9,N
